Location: Baia Mare
(47.6567°N, 23.5850°E)
Time: 20:14:52
(UTC+03:00)

ISS - Pass Details

Date: 31 May 2018
Orbit: 403 x 408 km, 51.6° (Epoch: 21 September)

Event Time Altitude Azimuth Distance (km) Brightness Sun altitude
Rises 22:25:17 0° 290° (WNW) 2,330 1.2 -9.7°
Reaches altitude 10° 22:27:26 10° 296° (WNW) 1,467 0.2 -9.9°
Maximum altitude 22:30:38 48° 13° (NNE) 535 -3.0 -10.3°
Drops below altitude 10° 22:33:49 10° 89° (E) 1,459 -1.4 -10.6°
Enters shadow 22:34:18 - 91° (E) 1,651 -1.1 -10.7°
